"Pseudo-MPEC" for P224s3a

Created 2025 Jan 16 12:31:05 UT using Find_Orb

Click here for an explanation of pseudo-MPECs

 
 Astrometry: 
     P224s3a* C2024 12 27.38392403 43 38.806+14 07 26.53   ~CRCV 21.70wXNEOCPF52
     P224s3a  C2024 12 27.40561603 43 38.243+14 07 27.85   ~CRCV 21.25wXNEOCPF52
     P224s3a  C2024 12 27.41644103 43 37.980+14 07 29.06   ~CRCV 21.45wXNEOCPF52

Station data:
(F52) Pan-STARRS 2, Haleakala  (N20.707382 W156.255910)  US/Hawaii.
   Observers J. Bulger, T. Dukes, T. Lowe, A. Schultz, M. Willman. Measurers
   K. Chambers, S. Chastel, T. de Boer, L. Denneau, J. Fairlamb, H.
   Flewelling, M. Huber, C.-C. Lin, E. Magnier, Y. Ramanjooloo, R. Wainscoat,
   R. Weryk. 1.8-m Ritchey-Chrétien + CCD.

Orbital elements:  P224s3a
   Perihelion 2026 Dec 12.55407 +/- 915 TT = 13:17:51 (JD 2461387.05407)
Epoch 2024 Dec 27.0 TT = JDT 2460671.5   Ju: 0.3013              AutoNEOCP
M 292.92383153 +/- 70               (J2000 ecliptic)
n   0.09374018 +/- 0.166            Peri.   73.18560 +/- 90
a   4.79938426 +/- 5.66             Node    82.16859 +/- 60
e   0.2124292 +/- 0.264             Incl.   14.71575 +/- 34
P  10.51425                H 14.57  G  0.15   U 11.6  SR
q 3.77985458 +/- 2.2    Q 5.81891395 +/- 46.9
From 3 observations 2024 Dec. 27 (46.8 min); mean residual 0".13
Residuals in arcseconds: 
241227 F52  .04+  .08+    241227 F52  .11-  .24-    241227 F52  .07+  .16+    

Ephemerides (geocentric):
Date (UTC) HH   RA             Dec           delta  r     elong  mag " sig PA
---- --------  ------------   ------------  ------ ------ -----  --- --------
2025 01 16 13  03 38 15.518   +14 43 38.16  4.0068 4.5703 119.4 21.6 4422 101
2025 01 16 14  03 38 15.231   +14 43 43.91  4.0073 4.5702 119.3 21.6 4436 101
2025 01 16 15  03 38 14.946   +14 43 49.66  4.0078 4.5701 119.3 21.6 4450 101
2025 01 16 16  03 38 14.662   +14 43 55.42  4.0083 4.5701 119.2 21.6 4463 101
2025 01 16 17  03 38 14.380   +14 44 01.19  4.0088 4.5700 119.2 21.6 4477 101
2025 01 16 18  03 38 14.099   +14 44 06.96  4.0093 4.5699 119.1 21.6 4491 101
2025 01 16 19  03 38 13.820   +14 44 12.73  4.0098 4.5698 119.1 21.6 4505 101
2025 01 16 20  03 38 13.543   +14 44 18.51  4.0103 4.5698 119.1 21.6 4519 101
2025 01 16 21  03 38 13.267   +14 44 24.29  4.0108 4.5697 119.0 21.6 4533 101
2025 01 16 22  03 38 12.993   +14 44 30.08  4.0113 4.5696 119.0 21.6 4547 101
2025 01 16 23  03 38 12.720   +14 44 35.88  4.0118 4.5696 118.9 21.6 4561 101
2025 01 17 00  03 38 12.450   +14 44 41.67  4.0123 4.5695 118.9 21.6 4575 101
2025 01 17 01  03 38 12.180   +14 44 47.48  4.0128 4.5694 118.8 21.6 4589 101
2025 01 17 02  03 38 11.913   +14 44 53.29  4.0133 4.5693 118.8 21.6 4603 101
2025 01 17 03  03 38 11.647   +14 44 59.10  4.0138 4.5693 118.8 21.6 4617 101
2025 01 17 04  03 38 11.383   +14 45 04.92  4.0143 4.5692 118.7 21.6 4631 101
2025 01 17 05  03 38 11.120   +14 45 10.74  4.0148 4.5691 118.7 21.6 4645 101
2025 01 17 06  03 38 10.859   +14 45 16.57  4.0153 4.5691 118.6 21.6 4659 101
2025 01 17 07  03 38 10.599   +14 45 22.41  4.0159 4.5690 118.6 21.6 4673 101
2025 01 17 08  03 38 10.341   +14 45 28.24  4.0164 4.5689 118.5 21.6 4687 101
2025 01 17 09  03 38 10.085   +14 45 34.09  4.0169 4.5688 118.5 21.6 4701 101
2025 01 17 10  03 38 09.831   +14 45 39.94  4.0174 4.5688 118.5 21.6 4716 101
2025 01 17 11  03 38 09.578   +14 45 45.79  4.0179 4.5687 118.4 21.6 4730 101
2025 01 17 12  03 38 09.326   +14 45 51.65  4.0184 4.5686 118.4 21.6 4744 101
2025 01 17 13  03 38 09.077   +14 45 57.51  4.0189 4.5686 118.3 21.6 4758 101
2025 01 17 14  03 38 08.828   +14 46 03.38  4.0194 4.5685 118.3 21.6 4773 101
2025 01 17 15  03 38 08.582   +14 46 09.25  4.0199 4.5684 118.2 21.6 4787 101
2025 01 17 16  03 38 08.337   +14 46 15.13  4.0204 4.5683 118.2 21.6 4801 101
2025 01 17 17  03 38 08.094   +14 46 21.02  4.0209 4.5683 118.2 21.6 4815 101
2025 01 17 18  03 38 07.852   +14 46 26.90  4.0214 4.5682 118.1 21.6 4830 101
2025 01 17 19  03 38 07.612   +14 46 32.80  4.0219 4.5681 118.1 21.6 4844 101
2025 01 17 20  03 38 07.374   +14 46 38.70  4.0224 4.5681 118.0 21.6 4858 101
2025 01 17 21  03 38 07.137   +14 46 44.60  4.0229 4.5680 118.0 21.6 4873 101
2025 01 17 22  03 38 06.902   +14 46 50.51  4.0234 4.5679 117.9 21.6 4887 101
2025 01 17 23  03 38 06.669   +14 46 56.42  4.0239 4.5679 117.9 21.6 4901 101
2025 01 18 00  03 38 06.437   +14 47 02.34  4.0244 4.5678 117.9 21.6 4916 101
2025 01 18 01  03 38 06.207   +14 47 08.26  4.0249 4.5677 117.8 21.6 4930 101
2025 01 18 02  03 38 05.978   +14 47 14.19  4.0255 4.5676 117.8 21.6 4945 101
2025 01 18 03  03 38 05.751   +14 47 20.12  4.0260 4.5676 117.7 21.6 4959 101
2025 01 18 04  03 38 05.526   +14 47 26.06  4.0265 4.5675 117.7 21.6 4974 101
2025 01 18 05  03 38 05.302   +14 47 32.00  4.0270 4.5674 117.6 21.6 4988 101
2025 01 18 06  03 38 05.080   +14 47 37.95  4.0275 4.5674 117.6 21.6 5003 101
2025 01 18 07  03 38 04.860   +14 47 43.90  4.0280 4.5673 117.6 21.6 5017 101
2025 01 18 08  03 38 04.641   +14 47 49.86  4.0285 4.5672 117.5 21.6 5032 101
2025 01 18 09  03 38 04.424   +14 47 55.82  4.0290 4.5671 117.5 21.6 5047 101
2025 01 18 10  03 38 04.208   +14 48 01.79  4.0295 4.5671 117.4 21.6 5061 101
2025 01 18 11  03 38 03.994   +14 48 07.76  4.0300 4.5670 117.4 21.6 5076 101
2025 01 18 12  03 38 03.782   +14 48 13.74  4.0305 4.5669 117.3 21.6 5090 101